Location: Düngen
(52.0952°N, 10.0219°E)
Time: 15:59:52
(UTC+00:00)

CZ-4C R/B - Pass Details

Date: 11 March 2026
Orbit: 478 x 1500 km, 63.4° (Epoch: 14 April)

Event Time Altitude Azimuth Distance (km) Brightness Sun altitude
Rises 18:26:04 0° 313° (NW) 3,622 6.5 -11.4°
Reaches altitude 10° 18:28:24 10° 311° (NW) 2,810 5.9 -11.7°
Maximum altitude 18:35:08 65° 232° (SW) 1,321 3.4 -12.7°
Drops below altitude 10° 18:43:34 10° 153° (SSE) 3,478 5.0 -14.0°
Enters shadow 18:46:36 - 151° (SSE) 4,486 5.6 -14.4°
